CSN7520 ZLDH-ZUUU

Flight info

Callsign CSN7520
Flight time 1h 46m
Altitude 35100
Route VIK09D VIKUP DCT LADUP LADUP9J
Aircraft A21N/M-SDE2E3FGHIRWXY/LB1

Departure

Time 2026-05-05 12:21
Airport Dunhuang Mogao International Airport (ZLDH)

Arrival

Time 2026-05-05 14:08
Airport Chengdu Shuangliu International Airport (ZUUU)
Time Latitude Longitude Altitude Speed Heading
2026-05-05 11:48 40.16444 94.80306 3700 ft 0 kts 85°
2026-05-05 12:14 40.16444 94.80308 3690 ft 1 kts 85°
2026-05-05 12:14 40.16441 94.80327 3687 ft 3 kts 122°
2026-05-05 12:14 40.16439 94.80328 3687 ft 0 kts 134°
2026-05-05 12:15 40.16430 94.80330 3693 ft 3 kts 190°
2026-05-05 12:15 40.16407 94.80311 3693 ft 5 kts 235°
2026-05-05 12:15 40.16395 94.80261 3693 ft 7 kts 251°
2026-05-05 12:15 40.16349 94.80239 3693 ft 8 kts 175°
2026-05-05 12:16 40.16284 94.80248 3693 ft 10 kts 173°
2026-05-05 12:16 40.16232 94.80255 3693 ft 0 kts 174°
2026-05-05 12:17 40.16229 94.80256 3693 ft 2 kts 174°
2026-05-05 12:18 40.16202 94.80259 3690 ft 6 kts 174°
2026-05-05 12:18 40.16153 94.80265 3693 ft 8 kts 174°
2026-05-05 12:18 40.16117 94.80197 3692 ft 12 kts 261°
2026-05-05 12:18 40.16106 94.80076 3692 ft 15 kts 264°
2026-05-05 12:19 40.16094 94.79925 3692 ft 18 kts 264°
2026-05-05 12:19 40.16081 94.79761 3693 ft 19 kts 264°
2026-05-05 12:19 40.16067 94.79585 3700 ft 20 kts 264°
2026-05-05 12:19 40.16062 94.79402 3695 ft 13 kts 284°
2026-05-05 12:20 40.16078 94.79306 3696 ft 2 kts 241°
2026-05-05 12:20 40.16059 94.79295 3701 ft 4 kts 172°
2026-05-05 12:20 40.16047 94.79331 3696 ft 5 kts 82°
2026-05-05 12:20 40.16049 94.79349 3700 ft 0 kts 84°
2026-05-05 12:21 40.16049 94.79350 3700 ft 1 kts 84°
2026-05-05 12:21 40.16080 94.79707 3693 ft 87 kts 81°
2026-05-05 12:21 40.16168 94.80903 3705 ft 172 kts 79°
2026-05-05 12:22 40.16298 94.82527 4586 ft 179 kts 79°
2026-05-05 12:22 40.16422 94.84256 5477 ft 208 kts 78°
2026-05-05 12:22 40.16575 94.86182 5933 ft 219 kts 79°
2026-05-05 12:22 40.16739 94.88268 6237 ft 242 kts 80°
2026-05-05 12:23 40.16916 94.90555 6574 ft 262 kts 80°
2026-05-05 12:23 40.17103 94.92995 7004 ft 277 kts 80°
2026-05-05 12:23 40.17294 94.95526 7603 ft 283 kts 81°
2026-05-05 12:23 40.17493 94.98120 8334 ft 286 kts 81°
2026-05-05 12:24 40.17700 95.00726 9031 ft 291 kts 82°
2026-05-05 12:24 40.17828 95.03392 9732 ft 297 kts 90°
2026-05-05 12:24 40.17533 95.06103 10262 ft 309 kts 105°
2026-05-05 12:24 40.16639 95.08750 10557 ft 329 kts 122°
2026-05-05 12:25 40.15214 95.11201 10824 ft 348 kts 135°
2026-05-05 12:25 40.13173 95.13022 11064 ft 367 kts 155°
2026-05-05 12:25 40.10658 95.13887 11308 ft 385 kts 173°
2026-05-05 12:25 40.07929 95.14113 11569 ft 401 kts 177°
2026-05-05 12:26 40.05088 95.14302 11820 ft 415 kts 176°
2026-05-05 12:26 40.02177 95.14583 12234 ft 422 kts 174°
2026-05-05 12:26 39.99257 95.14930 12961 ft 421 kts 174°
2026-05-05 12:26 39.96375 95.15638 13590 ft 423 kts 162°
2026-05-05 12:27 39.93689 95.17187 14128 ft 424 kts 148°
2026-05-05 12:27 39.91376 95.19567 14614 ft 426 kts 133°
2026-05-05 12:27 39.89576 95.22636 15063 ft 429 kts 118°
2026-05-05 12:27 39.88220 95.26107 15616 ft 432 kts 114°
2026-05-05 12:28 39.86926 95.29650 16179 ft 436 kts 113°
2026-05-05 12:28 39.85608 95.33228 16698 ft 440 kts 114°
2026-05-05 12:28 39.84261 95.36826 17207 ft 444 kts 115°
2026-05-05 12:28 39.82921 95.40390 17721 ft 447 kts 115°
2026-05-05 12:29 39.81547 95.44040 18233 ft 450 kts 115°
2026-05-05 12:29 39.80155 95.47713 18663 ft 455 kts 115°
2026-05-05 12:29 39.78748 95.51413 19063 ft 458 kts 115°
2026-05-05 12:29 39.77331 95.55138 19507 ft 461 kts 115°
2026-05-05 12:30 39.75906 95.58898 19921 ft 465 kts 115°
2026-05-05 12:30 39.74479 95.62689 20302 ft 469 kts 115°
2026-05-05 12:30 39.73042 95.66502 20674 ft 473 kts 115°
2026-05-05 12:30 39.71586 95.70360 21068 ft 477 kts 115°
2026-05-05 12:31 39.70119 95.74241 21570 ft 481 kts 116°
2026-05-05 12:31 39.68639 95.78149 22046 ft 484 kts 116°
2026-05-05 12:31 39.67147 95.82076 22467 ft 487 kts 116°
2026-05-05 12:31 39.65637 95.86046 22860 ft 491 kts 116°
2026-05-05 12:32 39.64119 95.90035 23250 ft 495 kts 116°
2026-05-05 12:32 39.62590 95.94051 23675 ft 497 kts 116°
2026-05-05 12:32 39.61054 95.98076 24015 ft 499 kts 116°
2026-05-05 12:32 39.59509 96.02121 24319 ft 502 kts 116°
2026-05-05 12:33 39.57916 96.06151 24610 ft 505 kts 120°
2026-05-05 12:33 39.55894 96.09875 24875 ft 506 kts 131°
2026-05-05 12:33 39.53365 96.12997 25310 ft 501 kts 143°
2026-05-05 12:33 39.50535 96.15598 25869 ft 496 kts 147°
2026-05-05 12:34 39.47712 96.18059 26287 ft 495 kts 148°
2026-05-05 12:34 39.44859 96.20544 26678 ft 494 kts 148°
2026-05-05 12:34 39.42014 96.23034 27052 ft 494 kts 148°
2026-05-05 12:34 39.39183 96.25520 27486 ft 492 kts 148°
2026-05-05 12:35 39.36358 96.28008 27907 ft 490 kts 149°
2026-05-05 12:35 39.33541 96.30489 28303 ft 489 kts 149°
2026-05-05 12:35 39.30726 96.32962 28683 ft 489 kts 149°
2026-05-05 12:35 39.27914 96.35429 29045 ft 488 kts 149°
2026-05-05 12:36 39.25105 96.37892 29399 ft 488 kts 149°
2026-05-05 12:36 39.22302 96.40345 29768 ft 487 kts 150°
2026-05-05 12:36 39.19497 96.42797 30102 ft 487 kts 150°
2026-05-05 12:36 39.16699 96.45246 30380 ft 486 kts 150°
2026-05-05 12:37 39.13905 96.47685 30717 ft 483 kts 150°
2026-05-05 12:37 39.11127 96.50107 31017 ft 482 kts 150°
2026-05-05 12:37 39.08352 96.52526 31307 ft 481 kts 150°
2026-05-05 12:37 39.05584 96.54939 31607 ft 480 kts 150°
2026-05-05 12:38 39.02821 96.57342 31893 ft 478 kts 151°
2026-05-05 12:38 39.00069 96.59730 32165 ft 478 kts 151°
2026-05-05 12:38 38.97316 96.62118 32420 ft 477 kts 151°
2026-05-05 12:38 38.94572 96.64500 32680 ft 476 kts 151°
2026-05-05 12:39 38.91837 96.66872 32926 ft 475 kts 151°
2026-05-05 12:39 38.89096 96.69245 33179 ft 474 kts 151°
2026-05-05 12:39 38.86367 96.71605 33415 ft 473 kts 151°
2026-05-05 12:39 38.83649 96.73956 33650 ft 472 kts 151°
2026-05-05 12:40 38.80928 96.76304 33873 ft 471 kts 151°
2026-05-05 12:40 38.78214 96.78647 34087 ft 470 kts 151°
2026-05-05 12:40 38.75508 96.80981 34274 ft 469 kts 151°
2026-05-05 12:40 38.72807 96.83307 34453 ft 468 kts 152°
2026-05-05 12:41 38.70110 96.85626 34627 ft 467 kts 152°
2026-05-05 12:41 38.67404 96.87943 34749 ft 468 kts 152°
2026-05-05 12:41 38.64703 96.90261 34929 ft 467 kts 152°
2026-05-05 12:41 38.62006 96.92574 35080 ft 467 kts 152°
2026-05-05 12:42 38.59307 96.94885 35195 ft 467 kts 152°
2026-05-05 12:42 38.56641 96.97165 35203 ft 469 kts 152°
2026-05-05 12:42 38.51169 97.01839 35184 ft 471 kts 152°
2026-05-05 12:43 38.45763 97.06452 35180 ft 471 kts 152°
2026-05-05 12:43 38.40308 97.11103 35162 ft 472 kts 152°
2026-05-05 12:44 38.34851 97.15747 35162 ft 471 kts 152°
2026-05-05 12:44 38.29388 97.20384 35150 ft 471 kts 152°
2026-05-05 12:45 38.23923 97.25014 35139 ft 472 kts 152°
2026-05-05 12:45 38.18463 97.29630 35105 ft 471 kts 152°
2026-05-05 12:46 38.13004 97.34235 35108 ft 470 kts 152°
2026-05-05 12:46 38.07550 97.38830 35108 ft 470 kts 152°
2026-05-05 12:47 38.02092 97.43422 35095 ft 470 kts 152°
2026-05-05 12:47 37.96645 97.47997 35086 ft 470 kts 152°
2026-05-05 12:48 37.91190 97.52568 35052 ft 469 kts 152°
2026-05-05 12:48 37.85748 97.57117 35060 ft 470 kts 152°
2026-05-05 12:49 37.80285 97.61677 35016 ft 472 kts 152°
2026-05-05 12:49 37.74780 97.66254 34960 ft 474 kts 152°
2026-05-05 12:50 37.69265 97.70837 34945 ft 475 kts 152°
2026-05-05 12:50 37.63737 97.75432 34908 ft 475 kts 152°
2026-05-05 12:51 37.58224 97.80011 34915 ft 476 kts 152°
2026-05-05 12:51 37.52688 97.84594 34870 ft 476 kts 152°
2026-05-05 12:52 37.47158 97.89161 34866 ft 474 kts 152°
2026-05-05 12:52 37.41655 97.93696 34834 ft 476 kts 152°
2026-05-05 12:53 37.36106 97.98265 34849 ft 477 kts 153°
2026-05-05 12:53 37.30544 98.02828 34807 ft 478 kts 153°
2026-05-05 12:54 37.22210 98.09669 34816 ft 478 kts 153°
2026-05-05 12:55 37.16642 98.14216 34799 ft 478 kts 152°
2026-05-05 12:55 37.11066 98.18769 34798 ft 478 kts 152°
2026-05-05 12:56 37.05496 98.23304 34806 ft 478 kts 152°
2026-05-05 12:56 36.99926 98.27837 34800 ft 477 kts 152°
2026-05-05 12:57 36.94346 98.32356 34799 ft 478 kts 152°
2026-05-05 12:57 36.88785 98.36872 34781 ft 476 kts 153°
2026-05-05 12:58 36.83225 98.41374 34796 ft 477 kts 153°
2026-05-05 12:58 36.77662 98.45865 34787 ft 474 kts 153°
2026-05-05 12:59 36.72125 98.50332 34834 ft 474 kts 153°
2026-05-05 12:59 36.66570 98.54805 34809 ft 476 kts 153°
2026-05-05 13:00 36.58237 98.61492 34860 ft 478 kts 153°
2026-05-05 13:01 36.47060 98.70447 34904 ft 477 kts 153°
2026-05-05 13:01 36.41480 98.74903 34919 ft 476 kts 152°
2026-05-05 13:02 36.35898 98.79350 34940 ft 477 kts 152°
2026-05-05 13:02 36.30298 98.83799 34965 ft 477 kts 152°
2026-05-05 13:03 36.25658 98.87480 34971 ft 477 kts 152°
2026-05-05 13:03 36.20074 98.91916 34998 ft 477 kts 152°
2026-05-05 13:04 36.14492 98.96331 34991 ft 477 kts 152°
2026-05-05 13:04 36.08902 99.00753 35002 ft 477 kts 152°
2026-05-05 13:05 36.03315 99.05158 35002 ft 476 kts 152°
2026-05-05 13:05 35.97726 99.09569 35002 ft 476 kts 152°
2026-05-05 13:06 35.92116 99.13979 34991 ft 480 kts 152°
2026-05-05 13:06 35.86452 99.18424 34998 ft 484 kts 152°
2026-05-05 13:07 35.80757 99.22882 35000 ft 486 kts 152°
2026-05-05 13:07 35.75048 99.27353 34976 ft 486 kts 152°
2026-05-05 13:08 35.69343 99.31807 34979 ft 486 kts 152°
2026-05-05 13:08 35.63632 99.36274 34939 ft 486 kts 152°
2026-05-05 13:09 35.57890 99.40745 34911 ft 490 kts 152°
2026-05-05 13:09 35.52117 99.45231 34920 ft 492 kts 152°
2026-05-05 13:10 35.46378 99.49679 34922 ft 489 kts 153°
2026-05-05 13:10 35.40621 99.54137 34869 ft 490 kts 153°
2026-05-05 13:11 35.34856 99.58598 34850 ft 491 kts 152°
2026-05-05 13:11 35.29076 99.63049 34861 ft 491 kts 152°
2026-05-05 13:12 35.23281 99.67512 34860 ft 492 kts 152°
2026-05-05 13:12 35.17496 99.71969 34832 ft 492 kts 153°
2026-05-05 13:13 35.11701 99.76415 34844 ft 491 kts 152°
2026-05-05 13:13 35.05908 99.80850 34839 ft 492 kts 152°
2026-05-05 13:14 35.00101 99.85295 34820 ft 491 kts 152°
2026-05-05 13:14 34.94303 99.89722 34823 ft 491 kts 152°
2026-05-05 13:15 34.88555 99.94108 34819 ft 491 kts 152°
2026-05-05 13:15 34.82762 99.98508 34787 ft 490 kts 152°
2026-05-05 13:16 34.76969 100.02920 34801 ft 492 kts 152°
2026-05-05 13:16 34.71180 100.07324 34805 ft 491 kts 152°
2026-05-05 13:17 34.65383 100.11718 34801 ft 490 kts 152°
2026-05-05 13:17 34.59587 100.16104 34784 ft 490 kts 152°
2026-05-05 13:18 34.53792 100.20482 34763 ft 492 kts 152°
2026-05-05 13:18 34.47970 100.24867 34778 ft 493 kts 152°
2026-05-05 13:19 34.42148 100.29251 34770 ft 491 kts 152°
2026-05-05 13:19 34.36325 100.33623 34784 ft 493 kts 152°
2026-05-05 13:20 34.30508 100.37983 34773 ft 492 kts 152°
2026-05-05 13:20 34.24681 100.42347 34776 ft 494 kts 152°
2026-05-05 13:21 34.18833 100.46723 34782 ft 495 kts 152°
2026-05-05 13:21 34.12986 100.51083 34795 ft 492 kts 152°
2026-05-05 13:22 34.07142 100.55439 34790 ft 495 kts 152°
2026-05-05 13:22 34.01284 100.59797 34778 ft 495 kts 152°
2026-05-05 13:23 33.95413 100.64161 34787 ft 498 kts 152°
2026-05-05 13:23 33.89509 100.68537 34788 ft 498 kts 152°
2026-05-05 13:24 33.83605 100.72904 34765 ft 498 kts 152°
2026-05-05 13:24 33.77704 100.77270 34776 ft 499 kts 152°
2026-05-05 13:25 33.71837 100.81598 34761 ft 498 kts 152°
2026-05-05 13:25 33.65920 100.85958 34759 ft 499 kts 152°
2026-05-05 13:26 33.59997 100.90312 34766 ft 500 kts 152°
2026-05-05 13:26 33.54064 100.94669 34760 ft 499 kts 152°
2026-05-05 13:27 33.48140 100.99009 34759 ft 499 kts 152°
2026-05-05 13:27 33.42210 101.03348 34751 ft 500 kts 152°
2026-05-05 13:28 33.36281 101.07681 34752 ft 499 kts 152°
2026-05-05 13:28 33.30353 101.12009 34750 ft 499 kts 152°
2026-05-05 13:29 33.24417 101.16330 34751 ft 500 kts 153°
2026-05-05 13:29 33.18475 101.20643 34752 ft 500 kts 153°
2026-05-05 13:30 33.12541 101.24956 34748 ft 499 kts 153°
2026-05-05 13:30 33.06601 101.29261 34745 ft 500 kts 153°
2026-05-05 13:31 33.00652 101.33563 34740 ft 501 kts 153°
2026-05-05 13:31 32.94697 101.37869 34729 ft 500 kts 153°
2026-05-05 13:32 32.88740 101.42163 34725 ft 501 kts 153°
2026-05-05 13:32 32.82774 101.46459 34721 ft 501 kts 153°
2026-05-05 13:33 32.76816 101.50743 34721 ft 499 kts 153°
2026-05-05 13:33 32.70852 101.55020 34720 ft 502 kts 153°
2026-05-05 13:34 32.64909 101.59284 34717 ft 502 kts 153°
2026-05-05 13:34 32.58931 101.63560 34714 ft 502 kts 153°
2026-05-05 13:35 32.52959 101.67830 34727 ft 501 kts 153°
2026-05-05 13:35 32.46974 101.72101 34734 ft 502 kts 153°
2026-05-05 13:36 32.40992 101.76359 34722 ft 503 kts 153°
2026-05-05 13:36 32.34993 101.80626 34713 ft 503 kts 153°
2026-05-05 13:37 32.28992 101.84886 34709 ft 505 kts 153°
2026-05-05 13:37 32.22962 101.89159 34712 ft 504 kts 153°
2026-05-05 13:38 32.16946 101.93411 34714 ft 504 kts 153°
2026-05-05 13:38 32.10966 101.97646 34709 ft 505 kts 153°
2026-05-05 13:39 32.04938 102.01895 34720 ft 504 kts 153°
2026-05-05 13:39 31.98906 102.06147 34703 ft 506 kts 153°
2026-05-05 13:40 31.92871 102.10392 34725 ft 505 kts 153°
2026-05-05 13:40 31.86842 102.14628 34733 ft 505 kts 153°
2026-05-05 13:41 31.80803 102.18862 34740 ft 505 kts 153°
2026-05-05 13:41 31.74775 102.23083 34748 ft 503 kts 153°
2026-05-05 13:42 31.68792 102.27260 34774 ft 498 kts 153°
2026-05-05 13:42 31.62817 102.31433 34781 ft 501 kts 153°
2026-05-05 13:43 31.56840 102.35604 34824 ft 498 kts 153°
2026-05-05 13:43 31.50899 102.39740 34856 ft 497 kts 153°
2026-05-05 13:44 31.44948 102.43870 34859 ft 498 kts 153°
2026-05-05 13:44 31.39013 102.47993 34862 ft 495 kts 153°
2026-05-05 13:45 31.33069 102.52110 34923 ft 497 kts 153°
2026-05-05 13:45 31.27132 102.56216 34918 ft 495 kts 153°
2026-05-05 13:46 31.21243 102.60280 34927 ft 495 kts 153°
2026-05-05 13:46 31.15260 102.64404 34939 ft 497 kts 154°
2026-05-05 13:47 31.09326 102.68492 34985 ft 499 kts 154°
2026-05-05 13:47 31.06338 102.70549 34867 ft 498 kts 154°
2026-05-05 13:47 31.03358 102.72588 34438 ft 498 kts 154°
2026-05-05 13:48 31.00369 102.74644 34150 ft 499 kts 154°
2026-05-05 13:48 30.97376 102.76699 33888 ft 500 kts 154°
2026-05-05 13:48 30.95356 102.78089 33448 ft 499 kts 154°
2026-05-05 13:48 30.91389 102.80814 32234 ft 502 kts 154°
2026-05-05 13:49 30.88374 102.82873 31340 ft 505 kts 154°
2026-05-05 13:49 30.85332 102.84947 30431 ft 508 kts 154°
2026-05-05 13:49 30.82288 102.87031 29487 ft 506 kts 154°
2026-05-05 13:49 30.79273 102.89095 28449 ft 500 kts 154°
2026-05-05 13:50 30.76293 102.91133 27486 ft 492 kts 154°
2026-05-05 13:50 30.73365 102.93125 26526 ft 485 kts 153°
2026-05-05 13:50 30.70471 102.95094 25608 ft 478 kts 153°
2026-05-05 13:50 30.67620 102.97041 24751 ft 472 kts 153°
2026-05-05 13:51 30.65749 102.98404 24169 ft 469 kts 147°
2026-05-05 13:51 30.63366 103.00976 23247 ft 468 kts 130°
2026-05-05 13:51 30.61702 103.04137 22352 ft 464 kts 114°
2026-05-05 13:51 30.60885 103.07717 21854 ft 459 kts 96°
2026-05-05 13:52 30.60961 103.11393 21540 ft 455 kts 79°
2026-05-05 13:52 30.61907 103.14871 21281 ft 450 kts 63°
2026-05-05 13:52 30.63609 103.17862 21059 ft 445 kts 47°
2026-05-05 13:52 30.65798 103.20394 20811 ft 441 kts 39°
2026-05-05 13:53 30.67914 103.22969 20300 ft 442 kts 52°
2026-05-05 13:53 30.69366 103.26099 19741 ft 441 kts 70°
2026-05-05 13:53 30.69997 103.29550 19184 ft 438 kts 87°
2026-05-05 13:53 30.69764 103.33037 18646 ft 431 kts 104°
2026-05-05 13:54 30.68768 103.36246 18001 ft 424 kts 116°
2026-05-05 13:54 30.67629 103.39435 17316 ft 421 kts 110°
2026-05-05 13:54 30.66949 103.42681 16691 ft 417 kts 102°
2026-05-05 13:54 30.66564 103.46000 16103 ft 412 kts 98°
2026-05-05 13:55 30.66261 103.49279 15491 ft 406 kts 98°
2026-05-05 13:55 30.65976 103.52517 14877 ft 400 kts 98°
2026-05-05 13:55 30.65689 103.55703 14300 ft 394 kts 99°
2026-05-05 13:55 30.65400 103.58849 13856 ft 389 kts 99°
2026-05-05 13:56 30.65111 103.61963 13509 ft 386 kts 99°
2026-05-05 13:56 30.64627 103.65007 13076 ft 379 kts 111°
2026-05-05 13:56 30.63480 103.67704 12575 ft 370 kts 128°
2026-05-05 13:56 30.61716 103.69819 12029 ft 362 kts 145°
2026-05-05 13:57 30.59537 103.71229 11561 ft 358 kts 158°
2026-05-05 13:57 30.57253 103.72314 11223 ft 349 kts 160°
2026-05-05 13:57 30.55052 103.73343 10959 ft 334 kts 159°
2026-05-05 13:57 30.52949 103.74345 10720 ft 319 kts 159°
2026-05-05 13:58 30.50953 103.75307 10443 ft 305 kts 159°
2026-05-05 13:58 30.49032 103.76238 10136 ft 292 kts 159°
2026-05-05 13:58 30.47105 103.76853 9652 ft 285 kts 176°
2026-05-05 13:58 30.45160 103.76604 9025 ft 283 kts 198°
2026-05-05 13:59 30.41525 103.74885 7864 ft 280 kts 203°
2026-05-05 13:59 30.39772 103.74006 7623 ft 268 kts 202°
2026-05-05 14:00 30.36571 103.72453 7741 ft 237 kts 202°
2026-05-05 14:00 30.34984 103.71965 7813 ft 237 kts 180°
2026-05-05 14:00 30.33413 103.72447 7754 ft 237 kts 148°
2026-05-05 14:00 30.32268 103.73780 7511 ft 238 kts 115°
2026-05-05 14:01 30.31997 103.75641 7211 ft 238 kts 82°
2026-05-05 14:01 30.32496 103.77462 6902 ft 238 kts 67°
2026-05-05 14:01 30.33164 103.79210 6566 ft 236 kts 67°
2026-05-05 14:01 30.33804 103.80942 6261 ft 231 kts 68°
2026-05-05 14:02 30.34402 103.82624 6080 ft 220 kts 67°
2026-05-05 14:02 30.35192 103.84073 5861 ft 208 kts 43°
2026-05-05 14:02 30.36393 103.84914 5577 ft 199 kts 24°
2026-05-05 14:02 30.37690 103.85465 5281 ft 199 kts 19°
2026-05-05 14:03 30.38986 103.85984 5049 ft 191 kts 20°
2026-05-05 14:03 30.40204 103.86495 4854 ft 184 kts 21°
2026-05-05 14:03 30.41376 103.87026 4648 ft 179 kts 22°
2026-05-05 14:03 30.42518 103.87555 4409 ft 174 kts 22°
2026-05-05 14:04 30.43584 103.88050 4197 ft 157 kts 23°
2026-05-05 14:04 30.44592 103.88519 3987 ft 156 kts 23°
2026-05-05 14:04 30.45580 103.88980 3792 ft 154 kts 23°
2026-05-05 14:04 30.46586 103.89448 3595 ft 154 kts 24°
2026-05-05 14:05 30.47576 103.89910 3397 ft 153 kts 24°
2026-05-05 14:05 30.48562 103.90369 3199 ft 153 kts 24°
2026-05-05 14:05 30.49545 103.90827 3004 ft 152 kts 24°
2026-05-05 14:05 30.50527 103.91285 2812 ft 151 kts 24°
2026-05-05 14:06 30.51500 103.91739 2631 ft 151 kts 24°
2026-05-05 14:06 30.52465 103.92198 2453 ft 149 kts 24°
2026-05-05 14:06 30.53427 103.92648 2298 ft 148 kts 23°
2026-05-05 14:06 30.54381 103.93099 2100 ft 148 kts 22°
2026-05-05 14:07 30.55335 103.93536 1880 ft 147 kts 22°
2026-05-05 14:07 30.56281 103.93975 1678 ft 147 kts 22°
2026-05-05 14:07 30.57176 103.94396 1624 ft 121 kts 22°
2026-05-05 14:07 30.57771 103.94661 1633 ft 63 kts 22°
2026-05-05 14:08 30.58035 103.94792 1638 ft 34 kts 31°
2026-05-05 14:08 30.58181 103.94940 1639 ft 22 kts 51°
2026-05-05 14:08 30.58212 103.94982 1640 ft 0 kts 50°
2026-05-05 14:09 30.58213 103.94984 1640 ft 2 kts 50°
2026-05-05 14:09 30.58231 103.95011 1640 ft 6 kts 71°
2026-05-05 14:10 30.58221 103.95067 1641 ft 8 kts 114°
2026-05-05 14:10 30.58193 103.95134 1641 ft 8 kts 112°
2026-05-05 14:10 30.58172 103.95196 1641 ft 0 kts 117°
2026-05-05 14:12 30.58171 103.95201 1613 ft 2 kts 112°
2026-05-05 14:12 30.58157 103.95238 1641 ft 8 kts 112°
2026-05-05 14:12 30.58137 103.95294 1641 ft 6 kts 112°
2026-05-05 14:12 30.58118 103.95350 1641 ft 8 kts 103°
2026-05-05 14:13 30.58142 103.95390 1641 ft 7 kts 24°
2026-05-05 14:13 30.58169 103.95403 1641 ft 3 kts 21°
2026-05-05 14:13 30.58173 103.95405 1641 ft 1 kts 21°